Weather in Gaziantep

Turkey     37°03′45″N   37°22′46″E
temp.,
°C
wind,
m/s
gust,
m/s
humid.,
%
clouds,
%
prec.,
mm/h
press.,
hPa
HPBL,
m
15 april, thu
thu1500:00+10nw227170 0.0 101910
03:00+9nw1169100 0.0 101810
06:00+9e1170100 0.0 101810
09:00+13se115619 0.0 1019382
12:00+17s334318 0.0 10181261
15:00+19sw55385 0.0 10161575
18:00+17sw34481 0.0 1015112
21:00+13wnw22560 0.0 101611
16 april, fri
fri1600:00+12nw22631 0.0 101610
03:00+11nnw11715 0.0 101610
06:00+10nne11758 0.0 101610
09:00+17e22535 0.0 1018410
12:00+19sse324323 0.0 10171248
15:00+21sw4534100 0.0 10161696
18:00+19sw3344100 0.0 101648
21:00+15w2245100 0.0 101711
17 april, sat
sat1700:00+14nnw11475 0.0 101611
03:00+13nnw115317 0.0 101611
06:00+12sw1153100 0.0 101711
09:00+19e113645 0.0 1018263
12:00+23sse22315 0.0 10171175
15:00+24ssw333061 0.0 10151524
18:00+22sw224420 0.0 101627
21:00+18wsw114786 0.0 101611
18 april, sun
sun1800:00+17wnw2244100 0.0 101711
03:00+16nw114792 0.0 101711
06:00+16w1150100 0.0 101711
09:00+22ene113788 0.0 1017195
12:00+25s222966 0.0 1017996
15:00+27wsw342881 0.0 10161761
18:00+23wsw3346100 0.0 101623
21:00+21wnw3346100 0.0 101713
19 april, mon
mon1900:00+21nw2245100 0.0 101711
03:00+20nne2347100 0.0 101611
06:00+19ne2250100 0.0 101612
09:00+23se4642100 0.0 1016350
12:00+25e2137100 0.0 1016624
15:00+26e4435100 0.0 1014746
18:00+24e2248100 0.0 101321
21:00+21ne3348100 0.0 101314